Find Kosmos-508

NORAD ID: 6121 Int'l Des: 1972-057 Owner: OKB10 Country: SU operational
LEOCIRCULAR

Live-Position

3D-Globus wird geladen...

Über Kosmos-508

Beschreibung wird geladen...

Nächste Überflüge

Passes for default location (London). Set your location on the main map for personalized predictions.

Höhenverlauf

Loading altitude history...

Zweizeiliger Elementsatz

1 6121U 72057E 26106.49325838 .00000000 00000-0 10725-3 0 9996
2 6121 74.0237 113.1464 0034137 189.4916 326.7928 12.48901584449995
Epoch: 16. Apr. 2026 • Age: 18 hours

Aktueller Status

Höhe 1453.7 km
Geschwindigkeit 7.15 km/s
Subsatellitenpunkt -27.56°S, 14.1°E
Typ other

Most Searched